Terug naar catalogus

CZ-3A R/B

ActiefHEO
NORAD 26383·ROCKET BODY·🇨🇳 China

Gelanceerd Jun 25, 2000 vanaf Xichang Satellite Launch Center

Loading…

Volgende Passages (komende 24 uur)

TLE

VersSource: Space-Track

Epoch: Sep 13, 2026, 05:24 UTC

1 26383U 00032B   26256.22532944  .00003470  00000-0  57803-3 0  9999
2 26383  27.4279 349.2151 5778512 287.8347  19.5538  4.38460421 39256

Volg CZ-3A R/B in realtime met AllMySat

Download on the App Store